Home   Weather   32°03'N, 118°45'E   Past weeks
Flag for China

Past Weather in 32°03'N, 118°45'E, China — Yesterday and Last 2 Weeks

Now
70 °F

Clear.


Feels Like: 70 °F
Forecast: 77 / 64 °F
Wind: 1 mph from North

Location: Nanjing

Current Time: May 20, 2019 at 3:24:57 am

Latest Report: May 20, 2019 at 3:00 am


Visibility: 10 mi

Pressure: 29.86 "Hg

Humidity: 88%

Dew Point: 66 °F

Location of 32°03'N, 118°45'ELocation

Past Weather in 32°03'N, 118°45'E — Graph

°F

32°03'N, 118°45'E Temperature Yesterday

Maximum temperature yesterday: 81 °F (at 4:00 pm)
Minimum temperature yesterday: 64 °F (at 2:00 am)
Average temperature yesterday: 71 °F

High & Low Weather Summary for the Past Weeks

 TemperatureHumidityPressure
High90 °F (May 12, 12:00 pm)100% (May 9, 6:00 am)30.18 "Hg (May 9, 6:00 am)
Low50 °F (May 7, 5:00 am)25% (May 7, 2:00 pm)29.62 "Hg (May 17, 3:00 pm)
Average70 °F66%29.86 "Hg
* Reported May 5 2:00 am — May 20 2:00 am, 32°03'N, 118°45'E. Weather by CustomWeather, © 2019

Note: Actual official high and low records may vary slightly from our data, if they occured in-between our weather recording intervals... More about our weather records

Advertising

32°03'N, 118°45'E Weather History for the Previous 24 Hours

Scroll right to see more
 ConditionsComfort  
Time TempWeatherWind HumidityBarometerVisibility
2:00 am
Mon, May 20
70 °FClear.3 mph88%29.86 "Hg10 mi
1:00 am70 °FLight rain. Clear.1 mph88%29.86 "HgN/A
12:00 am70 °FClear.3 mph88%29.86 "Hg10 mi
11:00 pm
Sun, May 19
70 °FClear.3 mph88%29.86 "Hg10 mi
10:00 pm70 °FPassing clouds.1 mph88%29.86 "HgN/A
9:00 pm72 °FPassing clouds.1 mph83%29.83 "HgN/A
8:00 pm73 °FClear.1 mph74%29.80 "Hg10 mi
7:00 pm75 °FClear.1 mph65%29.80 "Hg10 mi
6:00 pm79 °FSunny.1 mph58%29.77 "Hg10 mi
5:00 pm81 °FPassing clouds.3 mph54%29.74 "HgN/A
4:00 pm81 °FScattered clouds.3 mph54%29.74 "HgN/A
3:00 pm79 °FScattered clouds.3 mph58%29.74 "Hg4 mi
2:00 pm79 °FPartly sunny.6 mph58%29.74 "Hg3 mi
1:00 pm77 °FPartly sunny.3 mph61%29.77 "Hg5 mi
12:00 pm75 °FPartly sunny.3 mph65%29.77 "HgN/A
11:00 am73 °FPartly sunny.3 mph69%29.77 "HgN/A
10:00 am72 °FPartly sunny.3 mph69%29.77 "HgN/A
9:00 am72 °FScattered clouds.3 mph73%29.77 "HgN/A
8:00 am68 °FPartly sunny.3 mph83%29.77 "Hg4 mi
7:00 am66 °FMostly cloudy.3 mph88%29.74 "Hg4 mi
6:00 am64 °FFog.3 mph94%29.74 "Hg3 mi
5:00 am64 °FFog.1 mph94%29.74 "Hg2 mi
4:00 am64 °FPassing clouds.3 mph88%29.74 "Hg4 mi
3:00 am64 °FPassing clouds.3 mph94%29.74 "Hg5 mi
Weather by CustomWeather, © 2019

See weather overview